Time,TemperatureF,DewpointF,PressureIn,WindDirection,WindDirectionDegrees,WindSpeedMPH,WindSpeedGustMPH,Humidity,HourlyPrecipIn,Conditions,Clouds,dailyrainin,SoftwareType,DateUTC
2013-06-03 00:02:00,63.7,38.8,30.49,SSE,162,0.0,0.0,40,0.00,,,0.00,meteohub,2013-06-03 07:02:00,
2013-06-03 00:22:00,63.5,38.7,30.49,South,176,0.0,0.0,40,0.00,,,0.00,meteohub,2013-06-03 07:22:00,
2013-06-03 00:42:00,63.3,39.2,30.49,SE,133,0.0,0.0,41,0.00,,,0.00,meteohub,2013-06-03 07:42:00,
2013-06-03 01:02:00,63.5,39.4,30.49,SSE,164,0.0,0.0,41,0.00,,,0.00,meteohub,2013-06-03 08:02:00,
2013-06-03 01:22:00,63.3,39.2,30.49,South,186,0.0,0.0,41,0.00,,,0.00,meteohub,2013-06-03 08:22:00,
2013-06-03 01:42:00,63.3,39.2,30.46,ESE,109,0.0,0.0,41,0.00,,,0.00,meteohub,2013-06-03 08:42:00,
2013-06-03 02:02:00,63.1,39.0,30.46,ESE,104,0.0,0.0,41,0.00,,,0.00,meteohub,2013-06-03 09:02:00,
2013-06-03 02:22:00,63.3,39.2,30.46,South,179,0.0,0.0,41,0.00,,,0.00,meteohub,2013-06-03 09:22:00,
2013-06-03 02:42:00,63.5,39.4,30.49,SE,126,0.0,0.0,41,0.00,,,0.00,meteohub,2013-06-03 09:42:00,
2013-06-03 03:02:00,63.5,39.4,30.46,SE,136,0.0,0.0,41,0.00,,,0.00,meteohub,2013-06-03 10:02:00,
2013-06-03 03:22:00,63.5,39.9,30.46,SSE,158,0.0,0.0,42,0.00,,,0.00,meteohub,2013-06-03 10:22:00,
2013-06-03 03:42:00,63.5,39.4,30.46,SSE,156,0.0,0.0,41,0.00,,,0.00,meteohub,2013-06-03 10:42:00,
2013-06-03 04:02:00,63.5,39.4,30.46,SSE,149,0.0,0.0,41,0.00,,,0.00,meteohub,2013-06-03 11:02:00,
2013-06-03 04:22:00,63.5,39.9,30.46,SE,137,0.0,0.0,42,0.00,,,0.00,meteohub,2013-06-03 11:22:00,
2013-06-03 04:42:00,63.7,40.1,30.49,ESE,122,0.0,0.0,42,0.00,,,0.00,meteohub,2013-06-03 11:42:00,
2013-06-03 05:02:00,63.7,40.1,30.49,SE,134,0.0,0.0,42,0.00,,,0.00,meteohub,2013-06-03 12:02:00,
2013-06-03 05:22:00,63.9,40.3,30.49,ESE,123,0.0,0.0,42,0.00,,,0.00,meteohub,2013-06-03 12:22:00,
2013-06-03 05:42:00,63.7,40.1,30.49,SSE,148,0.0,0.0,42,0.00,,,0.00,meteohub,2013-06-03 12:42:00,
2013-06-03 06:02:00,63.7,40.1,30.49,SE,137,0.0,0.0,42,0.00,,,0.00,meteohub,2013-06-03 13:02:00,
2013-06-03 06:22:00,63.9,40.3,30.49,ENE,68,0.0,0.0,42,0.00,,,0.00,meteohub,2013-06-03 13:22:00,
2013-06-03 06:42:00,63.7,40.8,30.49,ESE,112,0.0,0.0,43,0.00,,,0.00,meteohub,2013-06-03 13:42:00,
2013-06-03 07:02:00,63.9,41.0,30.52,ENE,70,0.0,0.0,43,0.00,,,0.00,meteohub,2013-06-03 14:02:00,
2013-06-03 07:22:00,64.2,41.2,30.52,ESE,122,0.0,0.0,43,0.00,,,0.00,meteohub,2013-06-03 14:22:00,
2013-06-03 07:42:00,64.6,41.5,30.52,ENE,78,0.0,0.0,43,0.00,,,0.00,meteohub,2013-06-03 14:42:00,
2013-06-03 08:02:00,64.9,41.9,30.55,ESE,104,0.0,0.0,43,0.00,,,0.00,meteohub,2013-06-03 15:02:00,
2013-06-03 08:22:00,65.5,41.7,30.55,SSE,150,0.0,0.0,42,0.00,,,0.00,meteohub,2013-06-03 15:22:00,
2013-06-03 08:42:00,65.7,40.6,30.55,SSE,163,0.0,0.0,40,0.00,,,0.00,meteohub,2013-06-03 15:42:00,
2013-06-03 09:02:00,65.8,40.1,30.55,SE,145,0.0,0.0,39,0.00,,,0.00,meteohub,2013-06-03 16:02:00,
2013-06-03 09:22:00,66.2,39.9,30.55,SSE,155,0.0,0.0,38,0.00,,,0.00,meteohub,2013-06-03 16:22:00,
2013-06-03 09:42:00,66.4,39.4,30.55,SE,144,0.0,0.0,37,0.00,,,0.00,meteohub,2013-06-03 16:42:00,
2013-06-03 10:02:00,66.6,38.8,30.55,South,176,5.0,8.0,36,0.00,,,0.00,meteohub,2013-06-03 17:02:00,
2013-06-03 10:22:00,66.7,39.0,30.55,SSE,156,4.0,8.0,36,0.00,,,0.00,meteohub,2013-06-03 17:22:00,
2013-06-03 10:42:00,67.1,39.2,30.58,South,190,5.0,8.0,36,0.00,,,0.00,meteohub,2013-06-03 17:42:00,
2013-06-03 11:02:00,68.5,39.7,30.58,SSE,155,8.0,8.0,35,0.00,,,0.00,meteohub,2013-06-03 18:02:00,
2013-06-03 11:22:00,69.8,39.4,30.55,SSE,167,8.0,10.0,33,0.00,,,0.00,meteohub,2013-06-03 18:22:00,
2013-06-03 11:42:00,70.7,40.1,30.58,SW,214,9.0,11.0,33,0.00,,,0.00,meteohub,2013-06-03 18:42:00,
2013-06-03 12:02:00,70.7,40.1,30.55,SW,214,8.0,11.0,33,0.00,,,0.00,meteohub,2013-06-03 19:02:00,
2013-06-03 12:22:00,70.7,40.1,30.55,SSW,211,9.0,13.0,33,0.00,,,0.00,meteohub,2013-06-03 19:22:00,
2013-06-03 12:42:00,69.1,38.8,30.55,South,188,6.0,12.0,33,0.00,,,0.00,meteohub,2013-06-03 19:42:00,
2013-06-03 13:02:00,69.1,39.6,30.55,WSW,242,10.0,12.0,34,0.00,,,0.00,meteohub,2013-06-03 20:02:00,
2013-06-03 13:22:00,69.8,40.1,30.55,SW,229,8.0,12.0,34,0.00,,,0.00,meteohub,2013-06-03 20:22:00,
2013-06-03 13:42:00,70.0,39.6,30.55,WSW,246,11.0,11.0,33,0.00,,,0.00,meteohub,2013-06-03 20:42:00,
2013-06-03 14:02:00,69.1,39.6,30.55,SSW,210,8.0,11.0,34,0.00,,,0.00,meteohub,2013-06-03 21:02:00,
2013-06-03 14:22:00,69.3,39.7,30.55,SSW,210,7.0,11.0,34,0.00,,,0.00,meteohub,2013-06-03 21:22:00,
2013-06-03 14:42:00,69.4,39.9,30.52,SW,235,10.0,11.0,34,0.00,,,0.00,meteohub,2013-06-03 21:42:00,
2013-06-03 15:02:00,70.0,39.6,30.55,WSW,241,8.0,12.0,33,0.00,,,0.00,meteohub,2013-06-03 22:02:00,
2013-06-03 15:22:00,69.3,39.7,30.52,SSW,212,8.0,13.0,34,0.00,,,0.00,meteohub,2013-06-03 22:22:00,
2013-06-03 15:42:00,67.6,39.0,30.52,WSW,245,9.0,12.0,35,0.00,,,0.00,meteohub,2013-06-03 22:42:00,
2013-06-03 16:02:00,68.5,39.0,30.52,SW,226,8.0,11.0,34,0.00,,,0.00,meteohub,2013-06-03 23:02:00,
2013-06-03 16:22:00,68.4,38.8,30.52,SW,225,8.0,13.0,34,0.00,,,0.00,meteohub,2013-06-03 23:22:00,
2013-06-03 16:42:00,68.9,39.4,30.52,SSW,207,9.0,13.0,34,0.00,,,0.00,meteohub,2013-06-03 23:42:00,
2013-06-03 17:02:00,71.2,40.6,30.52,SW,233,9.0,13.0,33,0.00,,,0.00,meteohub,2013-06-04 00:02:00,
2013-06-03 17:22:00,70.3,39.9,30.52,SSW,205,8.0,11.0,33,0.00,,,0.00,meteohub,2013-06-04 00:22:00,
2013-06-03 17:42:00,69.6,39.2,30.52,SW,227,6.0,13.0,33,0.00,,,0.00,meteohub,2013-06-04 00:42:00,
2013-06-03 18:02:00,69.4,39.0,30.52,WSW,242,8.0,10.0,33,0.00,,,0.00,meteohub,2013-06-04 01:02:00,
2013-06-03 18:22:00,69.1,38.8,30.52,SSW,199,5.0,10.0,33,0.00,,,0.00,meteohub,2013-06-04 01:22:00,
2013-06-03 18:42:00,69.4,39.0,30.52,South,184,5.0,9.0,33,0.00,,,0.00,meteohub,2013-06-04 01:42:00,
2013-06-03 19:02:00,68.7,38.5,30.52,South,186,6.0,11.0,33,0.00,,,0.00,meteohub,2013-06-04 02:02:00,
2013-06-03 19:22:00,66.7,38.3,30.52,SSW,197,5.0,11.0,35,0.00,,,0.00,meteohub,2013-06-04 02:22:00,
2013-06-03 19:42:00,65.3,37.6,30.52,WSW,243,3.0,8.0,36,0.00,,,0.00,meteohub,2013-06-04 02:42:00,
2013-06-03 20:02:00,64.9,38.1,30.52,SW,222,5.0,9.0,37,0.00,,,0.00,meteohub,2013-06-04 03:02:00,
2013-06-03 20:22:00,64.8,37.9,30.55,South,176,5.0,7.0,37,0.00,,,0.00,meteohub,2013-06-04 03:22:00,
2013-06-03 20:42:00,64.4,37.6,30.55,SSE,164,5.0,10.0,37,0.00,,,0.00,meteohub,2013-06-04 03:42:00,
2013-06-03 21:02:00,64.6,38.5,30.55,SW,220,6.0,8.0,38,0.00,,,0.00,meteohub,2013-06-04 04:02:00,
2013-06-03 21:22:00,64.4,38.3,30.55,South,188,6.0,8.0,38,0.00,,,0.00,meteohub,2013-06-04 04:22:00,
2013-06-03 21:42:00,64.4,38.3,30.55,SE,146,5.0,10.0,38,0.00,,,0.00,meteohub,2013-06-04 04:42:00,
2013-06-03 22:02:00,64.4,38.3,30.58,SE,141,4.0,8.0,38,0.00,,,0.00,meteohub,2013-06-04 05:02:00,
2013-06-03 22:22:00,64.2,38.1,30.55,SSE,159,8.0,8.0,38,0.00,,,0.00,meteohub,2013-06-04 05:22:00,
2013-06-03 22:42:00,64.2,38.7,30.58,SSE,156,5.0,9.0,39,0.00,,,0.00,meteohub,2013-06-04 05:42:00,
2013-06-03 23:02:00,64.0,38.7,30.58,South,174,5.0,10.0,39,0.00,,,0.00,meteohub,2013-06-04 06:02:00,
2013-06-03 23:22:00,64.0,38.7,30.58,South,176,6.0,8.0,39,0.00,,,0.00,meteohub,2013-06-04 06:22:00,
2013-06-03 23:42:00,63.7,38.3,30.55,South,173,4.0,8.0,39,0.00,,,0.00,meteohub,2013-06-04 06:42:00,